Regional Weather Roundup
Issued by NWS

Home | Current Version | Previous Version | Graphics & Text | Print | Product List | Glossary On
Versions: 1 2 3 4 5 6 7 8 9 10 11 12 13 14 15 16 17 18 19 20 21 22 23 24 25 26 27 28 29 30 31 32 33 34 35 36 37 38 39 40 41 42 43 44 45 46 47 48 49 50
904
ASUS45 KBOU 170207
RWRCO

WEATHER ROUNDUP FOR COLORADO
NATIONAL WEATHER SERVICE DENVER/BOULDER CO
800 PM MDT WED AUG 16 2017

NOTE: "FAIR" INDICATES FEW OR NO CLOUDS BELOW 12000 FEET WITH NO
SIGNIFICANT WEATHER AND/OR OBSTRUCTIONS TO VISIBILITY.

COZ001>005-013-030-031-170300-
...NORTHWEST COLORADO...

CITY           SKY/WX    TMP DP  RH WIND       PRES   REMARKS
CRAIG          FAIR      68  37  32 CALM      30.16R
HAYDEN         FAIR      68  35  29 NW3       30.21R
MEEKER         FAIR      71  30  21 NW6       30.16S
RABBIT EARS PA FAIR      48  34  57 W10       30.46S
STEAMBOAT SPGS FAIR      65  41  41 CALM      30.21R
WALDEN         FAIR      54  39  58 E5        30.32S
$$

COZ006>008-011-170300-
...WEST CENTRAL VALLEYS...

CITY           SKY/WX    TMP DP  RH WIND       PRES   REMARKS
GRAND JUNCTION FAIR      82  35  18 NW13      30.04R
MONTROSE       FAIR      75  42  30 W3        30.12S
EAGLE          CLOUDY    71  36  27 S3        30.21R
RIFLE          CLOUDY    79  30  16 W10G29    30.10R
DELTA          FAIR      84  22  10 W3        30.07S
NUCLA          FAIR      77  18  10 W7        30.16R
$$

COZ017>023-064>068-170300-
...SOUTHWEST COLORADO...

CITY           SKY/WX    TMP DP  RH WIND       PRES   REMARKS
DURANGO        FAIR      74  26  16 W7        30.18R
CORTEZ         FAIR      77  23  13 CALM      30.14R
PAGOSA SPRINGS FAIR      71  22  15 W6        30.26S
TELLURIDE      MOCLDY    65  24  21 W3        30.38S
WOLF CREEK PAS FAIR      46  28  49 SW12G18   30.60S
$$

COZ009-010-012-014-032>034-037-058>063-170300-
...CENTRAL COLORADO...

CITY           SKY/WX    TMP DP  RH WIND       PRES   REMARKS
ASPEN          FAIR      63  36  36 SW6       30.26R
BUENA VISTA    FAIR      65  31  27 NW5       30.26R
COPPER MTN     FAIR      46  32  57 W10       30.56R
BERTHOUD PASS  CLOUDY    34  32  93 NW18      30.58R WCI  23
COTTONWOOD PAS FAIR      63  23  22 SW10G16   30.40R
GUNNISON       FAIR      66  31  27 N5        30.26R
KREMMLING      CLOUDY    66  41  39 SW8       30.26R
LEADVILLE      FAIR      55  30  38 VRB5      30.40R
MONARCH PASS   FAIR      50  23  34 W14       30.66R
SALIDA         MOCLDY    70  32  24 CALM      30.30R
SUNLIGHT       FAIR      50  30  46 W7        30.50S
WILKERSON PASS LGT RAIN  45  36  70 SE5       30.54F
$$

COZ069>075-170300-
...SAN LUIS VALLEY/SANGRE DE CRISTO MOUNTAINS...

CITY           SKY/WX    TMP DP  RH WIND       PRES   REMARKS
ALAMOSA        FAIR      64  40  41 NE5       30.22S
DEL NORTE      MOCLDY    65  38  37 N7        30.28S
LA VETA PASS   NOT AVBL
SAGUACHE       CLOUDY    66  34  30 NE5       30.27R
$$

COZ035-036-038>040-170300-
...NORTHERN COLORADO FRONT RANGE...

CITY           SKY/WX    TMP DP  RH WIND       PRES   REMARKS
DENVER INTL AP MOCLDY    66  47  50 S7        30.13F
DMNS CITY PARK   N/A     66  45  46 E2        30.15R
AURORA         PTCLDY    64  46  52 SE5       30.18S
FRONT RANGE AP MOCLDY    70  50  49 N6        30.16F
ERIE MUNI ARPT FAIR      67  48  50 CALM      30.19R
BOULDER MUN AP MOCLDY    68  48  49 S3        30.15R
CENTENNIAL     FAIR      67  44  43 N9        30.19R
BROOMFIELD     MOCLDY    68  46  45 CALM      30.18R
FORT COLLINS   FAIR      66  53  63 SW6       30.14R
LONGMONT       FAIR      70  51  49 W3        30.15R
$$

COZ041-046-047-076>085-087-088-170300-
...PIKES PEAK/PALMER DIVIDE AND SOUTHERN FOOTHILLS...

CITY           SKY/WX    TMP DP  RH WIND       PRES   REMARKS
COLO. SPRINGS  MOCLDY    64  53  67 NW7       30.22R
A. F. ACADEMY  FAIR      63  49  60 NW3       30.23R
SCHRIEVER AFB  MOCLDY    63  49  60 N10       30.21R
CHEYENNE MTN   FAIR      60  49  66 NW10      30.21R
ELLICOTT       FAIR     N/A N/A N/A E3        30.20R
FALCON         LGT RAIN  61  49  65 N6        30.26R
FORT CARSON    FAIR      62  53  72 N6        30.18R
LIMON          FAIR      59  53  80 N3        30.17R
MONUMENT HILL  FAIR      55  50  82 S5        30.28R
CANON CITY     CLEAR     72  52  49 N10       30.14R
WALSENBURG     FAIR      68  48  49 NE6       30.18R
TRINIDAD       FAIR      69  50  50 SE9       30.14R
$$

COZ042>045-048>051-090-091-170300-
...NORTHEAST COLORADO...

CITY           SKY/WX    TMP DP  RH WIND       PRES   REMARKS
GREELEY ARPT   FAIR      69  52  54 W5        30.12R
AKRON          FAIR      65  47  52 N3        30.12R
BURLINGTON     FAIR      68  55  63 N3        30.08R
WRAY           NOT AVBL
YUMA           FAIR      63  41  45 N7        30.09R
STERLING       FAIR      68  54  60 NE7       30.07R
HOLYOKE        FAIR      64  55  72 N5        30.07R
FORT MORGAN    FAIR      65  48  55 NE5       30.11S
$$

COZ086-089-092>099-170300-
...SOUTHEAST COLORADO...

CITY           SKY/WX    TMP DP  RH WIND       PRES   REMARKS
PUEBLO         FAIR      75  49  39 E9        30.10R
LA JUNTA       FAIR      73  52  47 NE9       30.07S
LAMAR          FAIR      73  53  49 N3        30.03R
SPRINGFIELD      N/A     66  56  70 N7        30.08R
$$




USA.gov is the U.S. government's official web portal to all federal, state and local government web resources and services.